When you browse on this site, cookies collect data to enhance your experience and personalize the content and advertising you see.
Visit our Privacy Policy to learn more. By continuing to use the site, you agree to this use of cookies and data.
  • En España
  • Lista de países
  • Para 7 días
  • Temperatura del agua
  • Mapa Satelital
  • El tiempo en el mapa
  • Informadores
  • user-avatar
    Iniciar sesión

    Tiempo cada hora Tibissa

    Hoy, 18 Junio, Martes

    Tiempo Temperatura Precipitaciones Viento Presión Humedad
    00:00 +24°C° 0 mm 2 mps 686 mmHg 49%
    01:00 +23°C° 0 mm 2 mps 686 mmHg 52%
    02:00 +22°C° 0 mm 1 mps 686 mmHg 54%
    03:00 +22°C° 0 mm 1 mps 685 mmHg 55%
    04:00 +19°C° 0 mm 0 mps 685 mmHg 56%
    05:00 +22°C° 0 mm 1 mps 685 mmHg 52%
    06:00 +23°C° 0 mm 1 mps 686 mmHg 48%
    07:00 +23°C° 0 mm 1 mps 686 mmHg 44%
    08:00 +25°C° 0 mm 1 mps 687 mmHg 39%
    09:00 +27°C° 0 mm 1 mps 687 mmHg 34%
    10:00 +28°C° 0 mm 1 mps 687 mmHg 28%
    11:00 +30°C° 0 mm 2 mps 687 mmHg 26%
    12:00 +31°C° 0 mm 3 mps 688 mmHg 23%
    13:00 +33°C° 0 mm 3 mps 688 mmHg 20%
    14:00 +34°C° 0 mm 3 mps 687 mmHg 20%
    15:00 +34°C° 0 mm 3 mps 687 mmHg 19%
    16:00 +35°C° 0 mm 3 mps 687 mmHg 18%
    17:00 +34°C° 0 mm 3 mps 687 mmHg 20%
    18:00 +33°C° 0 mm 4 mps 687 mmHg 21%
    19:00 +33°C° 0 mm 5 mps 687 mmHg 23%
    20:00 +32°C° 0 mm 4 mps 687 mmHg 25%
    21:00 +30°C° 0 mm 4 mps 687 mmHg 26%
    22:00 +28°C° 0 mm 3 mps 687 mmHg 28%
    23:00 +28°C° 0 mm 3 mps 687 mmHg 30%

    Mañana, 19 Junio, Miércoles

    Tiempo Temperatura Precipitaciones Viento Presión Humedad
    00:00 +27°C° 0 mm 3 mps 687 mmHg 32%
    01:00 +26°C° 0 mm 3 mps 687 mmHg 34%
    02:00 +25°C° 0 mm 3 mps 687 mmHg 35%
    03:00 +25°C° 0 mm 3 mps 686 mmHg 36%
    04:00 +24°C° 0 mm 3 mps 686 mmHg 37%
    05:00 +25°C° 0 mm 3 mps 686 mmHg 35%
    06:00 +26°C° 0 mm 3 mps 686 mmHg 32%
    07:00 +27°C° 0 mm 4 mps 687 mmHg 30%
    08:00 +29°C° 0 mm 4 mps 687 mmHg 27%
    09:00 +32°C° 0 mm 4 mps 687 mmHg 24%
    10:00 +34°C° 0 mm 5 mps 688 mmHg 21%
    11:00 +35°C° 0 mm 5 mps 688 mmHg 20%
    12:00 +36°C° 0 mm 5 mps 688 mmHg 18%
    13:00 +37°C° 0 mm 5 mps 688 mmHg 16%
    14:00 +39°C° 0 mm 5 mps 688 mmHg 16%
    15:00 +39°C° 0 mm 5 mps 687 mmHg 16%
    16:00 +39°C° 0 mm 5 mps 687 mmHg 16%
    17:00 +38°C° 0 mm 6 mps 687 mmHg 19%
    18:00 +36°C° 0 mm 6 mps 687 mmHg 22%
    19:00 +34°C° 0 mm 6 mps 687 mmHg 25%
    20:00 +33°C° 0 mm 5 mps 687 mmHg 28%
    21:00 +30°C° 0 mm 4 mps 687 mmHg 31%
    22:00 +29°C° 0 mm 3 mps 687 mmHg 33%
    23:00 +29°C° 0 mm 2 mps 687 mmHg 34%

    Pasado mañana, 20 Junio, Jueves

    Tiempo Temperatura Precipitaciones Viento Presión Humedad
    00:00 +28°C° 0 mm 2 mps 687 mmHg 35%
    01:00 +28°C° 0 mm 1 mps 686 mmHg 36%
    02:00 +27°C° 0 mm 1 mps 686 mmHg 36%
    03:00 +27°C° 0 mm 1 mps 686 mmHg 36%
    04:00 +26°C° 0 mm 1 mps 685 mmHg 36%
    05:00 +27°C° 0 mm 1 mps 686 mmHg 34%
    06:00 +29°C° 0 mm 1 mps 686 mmHg 31%
    07:00 +30°C° 0 mm 1 mps 687 mmHg 28%
    08:00 +31°C° 0 mm 2 mps 687 mmHg 25%
    09:00 +34°C° 0 mm 2 mps 687 mmHg 22%
    10:00 +35°C° 0 mm 2 mps 688 mmHg 19%
    11:00 +36°C° 0 mm 3 mps 688 mmHg 18%
    12:00 +37°C° 0 mm 3 mps 688 mmHg 16%
    13:00 +38°C° 0 mm 4 mps 688 mmHg 15%
    14:00 +38°C° 0 mm 4 mps 687 mmHg 15%
    15:00 +39°C° 0 mm 5 mps 687 mmHg 15%
    16:00 +39°C° 0 mm 5 mps 687 mmHg 15%
    17:00 +37°C° 0 mm 5 mps 687 mmHg 18%
    18:00 +35°C° 0 mm 5 mps 687 mmHg 20%
    19:00 +34°C° 0 mm 4 mps 687 mmHg 23%
    20:00 +33°C° 0 mm 4 mps 687 mmHg 27%
    21:00 +30°C° 0 mm 3 mps 687 mmHg 30%
    22:00 +29°C° 0 mm 3 mps 687 mmHg 33%
    23:00 +29°C° 0 mm 3 mps 687 mmHg 34%

    21 Junio, Viernes

    Tiempo Temperatura Precipitaciones Viento Presión Humedad
    00:00 +28°C° 0 mm 3 mps 686 mmHg 35%
    01:00 +28°C° 0 mm 3 mps 686 mmHg 36%
    02:00 +27°C° 0 mm 3 mps 686 mmHg 36%
    03:00 +27°C° 0 mm 3 mps 686 mmHg 35%
    04:00 +27°C° 0 mm 3 mps 685 mmHg 35%
    05:00 +28°C° 0 mm 4 mps 686 mmHg 32%
    06:00 +29°C° 0 mm 5 mps 686 mmHg 30%
    07:00 +30°C° 0 mm 6 mps 686 mmHg 27%
    08:00 +33°C° 0 mm 7 mps 687 mmHg 23%
    09:00 +35°C° 0 mm 8 mps 687 mmHg 20%
    10:00 +38°C° 0 mm 10 mps 688 mmHg 16%
    11:00 +39°C° 0 mm 9 mps 688 mmHg 15%
    12:00 +40°C° 0 mm 9 mps 688 mmHg 14%
    13:00 +40°C° 0 mm 8 mps 687 mmHg 14%
    14:00 +40°C° 0 mm 7 mps 687 mmHg 13%
    15:00 +40°C° 0 mm 7 mps 687 mmHg 13%
    16:00 +40°C° 0 mm 6 mps 686 mmHg 13%
    17:00 +40°C° 0 mm 6 mps 686 mmHg 13%
    18:00 +39°C° 0 mm 5 mps 686 mmHg 13%
    19:00 +37°C° 0 mm 5 mps 687 mmHg 13%
    20:00 +36°C° 0 mm 4 mps 687 mmHg 15%
    21:00 +34°C° 0 mm 3 mps 687 mmHg 16%
    22:00 +32°C° 0 mm 2 mps 687 mmHg 18%
    23:00 +31°C° 0 mm 3 mps 687 mmHg 20%

    22 Junio, Sábado

    Tiempo Temperatura Precipitaciones Viento Presión Humedad
    00:00 +31°C° 0 mm 3 mps 686 mmHg 22%
    01:00 +30°C° 0 mm 4 mps 686 mmHg 24%
    02:00 +29°C° 0 mm 4 mps 686 mmHg 25%
    03:00 +29°C° 0 mm 4 mps 686 mmHg 27%
    04:00 +28°C° 0 mm 4 mps 685 mmHg 28%
    05:00 +29°C° 0 mm 4 mps 686 mmHg 26%
    06:00 +30°C° 0 mm 5 mps 686 mmHg 25%
    07:00 +32°C° 0 mm 6 mps 687 mmHg 23%
    08:00 +34°C° 0 mm 7 mps 687 mmHg 20%
    09:00 +37°C° 0 mm 8 mps 688 mmHg 17%
    10:00 +38°C° 0 mm 9 mps 688 mmHg 14%
    11:00 +39°C° 0 mm 9 mps 688 mmHg 13%
    12:00 +40°C° 0 mm 8 mps 688 mmHg 13%
    13:00 +41°C° 0 mm 8 mps 688 mmHg 12%
    14:00 +41°C° 0 mm 8 mps 688 mmHg 12%
    15:00 +41°C° 0 mm 7 mps 687 mmHg 12%
    16:00 +41°C° 0 mm 7 mps 687 mmHg 11%
    17:00 +40°C° 0 mm 6 mps 687 mmHg 12%
    18:00 +39°C° 0 mm 5 mps 687 mmHg 12%
    19:00 +39°C° 0 mm 5 mps 687 mmHg 13%
    20:00 +36°C° 0 mm 4 mps 687 mmHg 14%
    21:00 +35°C° 0 mm 4 mps 687 mmHg 15%
    22:00 +34°C° 0 mm 4 mps 688 mmHg 16%
    23:00 +33°C° 0 mm 4 mps 687 mmHg 18%

    23 Junio, Domingo

    Tiempo Temperatura Precipitaciones Viento Presión Humedad
    00:00 +32°C° 0 mm 4 mps 687 mmHg 20%
    01:00 +29°C° 0 mm 4 mps 687 mmHg 23%
    02:00 +29°C° 0 mm 4 mps 687 mmHg 23%
    03:00 +28°C° 0 mm 4 mps 687 mmHg 24%
    04:00 +28°C° 0 mm 4 mps 686 mmHg 25%
    05:00 +29°C° 0 mm 5 mps 687 mmHg 23%
    06:00 +30°C° 0 mm 5 mps 688 mmHg 21%
    07:00 +32°C° 0 mm 6 mps 688 mmHg 20%
    08:00 +34°C° 0 mm 7 mps 689 mmHg 17%
    09:00 +35°C° 0 mm 9 mps 689 mmHg 15%
    10:00 +38°C° 0 mm 10 mps 690 mmHg 13%
    11:00 +39°C° 0 mm 9 mps 690 mmHg 12%
    12:00 +40°C° 0 mm 9 mps 690 mmHg 12%
    13:00 +42°C° 0 mm 9 mps 690 mmHg 11%
    14:00 +41°C° 0 mm 8 mps 690 mmHg 11%
    15:00 +41°C° 0 mm 7 mps 690 mmHg 11%
    16:00 +41°C° 0 mm 6 mps 689 mmHg 11%
    17:00 +40°C° 0 mm 6 mps 689 mmHg 11%
    18:00 +39°C° 0 mm 5 mps 689 mmHg 11%
    19:00 +39°C° 0 mm 5 mps 689 mmHg 12%
    20:00 +36°C° 0 mm 4 mps 689 mmHg 13%
    21:00 +35°C° 0 mm 4 mps 690 mmHg 14%
    22:00 +34°C° 0 mm 3 mps 690 mmHg 15%
    23:00 +33°C° 0 mm 3 mps 690 mmHg 18%
    Mostrar más